| time (UTC) | temp F | wind direction | speed MPH | gust MPH | rain 1hr in | rain 24hr in | rain mn in | humidity % | barometer mb |
| 20260509044631 | 57 | 284 | 0.0 | 2.0 | 0.00 | 0.00 | 0.00 | 95 | 1012.6 |
| 20260509043132 | 57 | 285 | 0.0 | 1.0 | 0.00 | 0.00 | 0.00 | 95 | 1012.5 |
| 20260509041551 | 57 | 285 | 0.0 | 1.0 | 0.00 | 0.00 | 0.00 | 95 | 1012.5 |
| 20260509040050 | 58 | 285 | 0.0 | 0.0 | 0.00 | 0.00 | 0.00 | 94 | 1012.4 |
| 20260509034551 | 58 | 285 | 0.0 | 1.0 | 0.00 | 0.00 | 0.00 | 94 | 1012.5 |
| 20260509033052 | 58 | 285 | 0.0 | 0.0 | 0.00 | 0.00 | 0.00 | 94 | 1012.8 |
| 20260509031558 | 58 | 285 | 0.0 | 0.0 | 0.00 | 0.00 | 0.00 | 93 | 1012.5 |
| 20260509030107 | 58 | 285 | 0.0 | 0.0 | 0.00 | 0.00 | 0.00 | 93 | 1012.1 |
| 20260509024549 | 58 | 285 | 0.0 | 0.0 | 0.00 | 0.00 | 0.00 | 92 | 1012.4 |
| 20260509023047 | 58 | 285 | 0.0 | 0.0 | 0.00 | 0.00 | 0.00 | 91 | 1012.7 |
| 20260509021548 | 59 | 285 | 0.0 | 0.0 | 0.00 | 0.00 | 0.00 | 91 | 1012.7 |
| 20260509020050 | 58 | 285 | 0.0 | 0.0 | 0.00 | 0.00 | 0.00 | 91 | 1012.8 |
| 20260509014547 | 59 | 285 | 0.0 | 0.0 | 0.00 | 0.00 | 0.00 | 91 | 1012.5 |
| 20260509013046 | 59 | 285 | 0.0 | 0.0 | 0.00 | 0.00 | 0.00 | 90 | 1012.3 |
| 20260509011550 | 59 | 285 | 0.0 | 1.0 | 0.00 | 0.00 | 0.00 | 90 | 1012.4 |
| 20260509010044 | 60 | 285 | 0.0 | 1.0 | 0.00 | 0.00 | 0.00 | 90 | 1012.6 |
| 20260509004553 | 60 | 285 | 0.0 | 0.0 | 0.00 | 0.00 | 0.00 | 89 | 1012.6 |
| 20260509003051 | 60 | 285 | 0.0 | 1.0 | 0.00 | 0.00 | 0.00 | 88 | 1012.7 |
| 20260509001542 | 61 | 285 | 0.0 | 1.0 | 0.00 | 0.00 | 0.00 | 89 | 1012.8 |
| 20260509000041 | 61 | 285 | 0.0 | 0.0 | 0.00 | 0.00 | 0.00 | 88 | 1012.7 |
| 20260508234539 | 62 | 285 | 0.0 | 0.0 | 0.00 | 0.00 | 0.00 | 87 | 1013.1 |
| 20260508233040 | 62 | 285 | 0.0 | 0.0 | 0.00 | 0.00 | 0.00 | 86 | 1013.5 |
| 20260508231536 | 63 | 285 | 0.0 | 1.0 | 0.00 | 0.00 | 0.00 | 85 | 1013.7 |
| 20260508230035 | 63 | 285 | 0.0 | 2.0 | 0.00 | 0.00 | 0.00 | 85 | 1013.8 |
| 20260508224548 | 64 | 285 | 0.0 | 0.0 | 0.00 | 0.00 | 0.00 | 85 | 1013.6 |
| 20260508223046 | 64 | 283 | 0.0 | 1.0 | 0.00 | 0.00 | 0.00 | 84 | 1013.9 |
| 20260508221533 | 64 | 283 | 0.0 | 0.0 | 0.00 | 0.00 | 0.00 | 84 | 1013.8 |
| 20260508220034 | 64 | 283 | 0.0 | 0.0 | 0.00 | 0.00 | 0.00 | 83 | 1013.6 |
| 20260508214530 | 65 | 283 | 0.0 | 0.0 | 0.00 | 0.00 | 0.00 | 81 | 1013.8 |
| 20260508213030 | 65 | 283 | 0.0 | 0.0 | 0.00 | 0.00 | 0.00 | 81 | 1013.9 |
| 20260508211529 | 65 | 283 | 0.0 | 1.0 | 0.00 | 0.00 | 0.00 | 79 | 1014.0 |
| 20260508210030 | 65 | 290 | 0.0 | 1.0 | 0.00 | 0.00 | 0.00 | 78 | 1014.2 |
| 20260508204530 | 65 | 277 | 0.0 | 1.0 | 0.00 | 0.00 | 0.00 | 80 | 1014.3 |
| 20260508203028 | 65 | 277 | 0.0 | 2.0 | 0.00 | 0.00 | 0.00 | 75 | 1013.9 |
| 20260508201527 | 65 | 269 | 0.0 | 0.0 | 0.00 | 0.00 | 0.00 | 78 | 1014.2 |
| 20260508200028 | 65 | 269 | 0.0 | 1.0 | 0.00 | 0.00 | 0.00 | 75 | 1014.3 |
| 20260508194533 | 66 | 267 | 0.0 | 3.0 | 0.00 | 0.00 | 0.00 | 76 | 1014.5 |
| 20260508193024 | 66 | 263 | 0.0 | 2.0 | 0.00 | 0.00 | 0.00 | 72 | 1014.7 |
| 20260508191532 | 65 | 103 | 0.0 | 2.0 | 0.00 | 0.00 | 0.00 | 73 | 1014.6 |
| 20260508190024 | 66 | 79 | 2.0 | 6.0 | 0.00 | 0.00 | 0.00 | 71 | 1014.2 |
| 20260508184524 | 66 | 102 | 1.0 | 4.0 | 0.00 | 0.00 | 0.00 | 69 | 1014.5 |
| 20260508183028 | 66 | 80 | 1.0 | 4.0 | 0.00 | 0.00 | 0.00 | 70 | 1015.0 |
| 20260508181520 | 67 | 142 | 0.0 | 4.0 | 0.00 | 0.00 | 0.00 | 68 | 1015.4 |
| 20260508180022 | 67 | 219 | 1.0 | 3.0 | 0.00 | 0.00 | 0.00 | 69 | 1015.5 |
| 20260508174520 | 67 | 217 | 0.0 | 2.0 | 0.00 | 0.00 | 0.00 | 69 | 1016.1 |
| 20260508173020 | 66 | 111 | 0.0 | 3.0 | 0.00 | 0.00 | 0.00 | 66 | 1015.7 |
| 20260508171519 | 66 | 81 | 1.0 | 6.0 | 0.00 | 0.00 | 0.00 | 64 | 1016.2 |
| 20260508170019 | 66 | 102 | 0.0 | 7.0 | 0.00 | 0.00 | 0.00 | 64 | 1016.3 |
| 20260508164517 | 67 | 86 | 2.0 | 5.0 | 0.00 | 0.00 | 0.00 | 61 | 1016.7 |
| 20260508163027 | 67 | 70 | 0.0 | 4.0 | 0.00 | 0.00 | 0.00 | 63 | 1016.7 |
| 20260508161514 | 67 | 84 | 0.0 | 2.0 | 0.00 | 0.00 | 0.00 | 64 | 1016.9 |
| 20260508160019 | 66 | 149 | 1.0 | 5.0 | 0.00 | 0.00 | 0.00 | 67 | 1017.0 |
| 20260508154508 | 65 | 96 | 1.0 | 4.0 | 0.00 | 0.00 | 0.00 | 68 | 1017.4 |
| 20260508153003 | 64 | 93 | 0.0 | 6.0 | 0.00 | 0.00 | 0.00 | 70 | 1017.2 |
| 20260508151504 | 64 | 102 | 0.0 | 5.0 | 0.00 | 0.00 | 0.00 | 75 | 1017.2 |
| 20260508150110 | 63 | 93 | 0.0 | 4.0 | 0.00 | 0.00 | 0.00 | 74 | 1017.4 |
| 20260508144557 | 63 | 112 | 0.0 | 3.0 | 0.00 | 0.00 | 0.00 | 77 | 1017.4 |
| 20260508143121 | 62 | 78 | 0.0 | 3.0 | 0.00 | 0.00 | 0.00 | 78 | 1017.5 |
| 20260508141553 | 61 | 95 | 0.0 | 4.0 | 0.00 | 0.00 | 0.00 | 84 | 1017.7 |
| 20260508134544 | 59 | 113 | 0.0 | 1.0 | 0.00 | 0.00 | 0.00 | 87 | 1017.9 |
| 20260508133043 | 58 | 120 | 0.0 | 1.0 | 0.00 | 0.00 | 0.00 | 90 | 1018.0 |
| 20260508131538 | 56 | 120 | 0.0 | 3.0 | 0.00 | 0.00 | 0.00 | 93 | 1017.8 |
| 20260508130034 | 56 | 120 | 0.0 | 2.0 | 0.00 | 0.00 | 0.00 | 96 | 1017.7 |
| 20260508124534 | 55 | 122 | 0.0 | 2.0 | 0.00 | 0.00 | 0.00 | 97 | 1017.5 |
| 20260508123034 | 54 | 122 | 0.0 | 1.0 | 0.00 | 0.00 | 0.00 | 98 | 1017.6 |
| 20260508121527 | 54 | 123 | 0.0 | 1.0 | 0.00 | 0.00 | 0.00 | 99 | 1017.2 |
| 20260508120023 | 53 | 123 | 0.0 | 1.0 | 0.00 | 0.00 | 0.00 | 98 | 1017.1 |
| 20260508114520 | 53 | 123 | 0.0 | 0.0 | 0.00 | 0.00 | 0.00 | 98 | 1016.8 |
| 20260508113018 | 53 | 123 | 0.0 | 0.0 | 0.00 | 0.00 | 0.00 | 98 | 1016.7 |
| 20260508111514 | 53 | 123 | 0.0 | 1.0 | 0.00 | 0.00 | 0.00 | 98 | 1016.4 |
| 20260508110011 | 53 | 123 | 0.0 | 1.0 | 0.00 | 0.00 | 0.00 | 98 | 1016.3 |
| 20260508104510 | 53 | 123 | 0.0 | 1.0 | 0.00 | 0.01 | 0.00 | 98 | 1016.2 |
| 20260508103008 | 53 | 123 | 0.0 | 0.0 | 0.00 | 0.01 | 0.00 | 98 | 1016.0 |
| 20260508101508 | 53 | 123 | 0.0 | 0.0 | 0.00 | 0.01 | 0.00 | 98 | 1016.0 |
| 20260508100008 | 53 | 123 | 0.0 | 0.0 | 0.00 | 0.01 | 0.00 | 98 | 1015.8 |
| 20260508094505 | 53 | 123 | 0.0 | 0.0 | 0.00 | 0.08 | 0.00 | 97 | 1015.4 |
| 20260508093004 | 53 | 123 | 0.0 | 0.0 | 0.00 | 0.08 | 0.00 | 97 | 1015.0 |
| 20260508091504 | 54 | 123 | 0.0 | 0.0 | 0.00 | 0.08 | 0.00 | 98 | 1014.6 |
| 20260508090002 | 54 | 123 | 0.0 | 0.0 | 0.00 | 0.08 | 0.00 | 97 | 1014.6 |
| 20260508084501 | 54 | 123 | 0.0 | 0.0 | 0.00 | 0.09 | 0.00 | 97 | 1014.6 |
| 20260508083048 | 54 | 123 | 0.0 | 0.0 | 0.00 | 0.09 | 0.00 | 97 | 1014.4 |
| 20260508081536 | 54 | 123 | 0.0 | 0.0 | 0.00 | 0.09 | 0.00 | 97 | 1014.4 |
| 20260508080053 | 55 | 123 | 0.0 | 0.0 | 0.00 | 0.09 | 0.00 | 97 | 1014.4 |
| 20260508074535 | 55 | 123 | 0.0 | 0.0 | 0.00 | 0.14 | 0.00 | 97 | 1014.6 |
| 20260508073038 | 55 | 123 | 0.0 | 0.0 | 0.00 | 0.14 | 0.00 | 97 | 1014.9 |
| 20260508071531 | 55 | 123 | 0.0 | 0.0 | 0.00 | 0.14 | 0.00 | 96 | 1015.0 |
| 20260508070029 | 56 | 123 | 0.0 | 0.0 | 0.00 | 0.14 | 0.00 | 97 | 1014.7 |
| 20260508064540 | 56 | 123 | 0.0 | 1.0 | 0.00 | 0.14 | 0.00 | 97 | 1014.9 |
| 20260508063028 | 56 | 123 | 0.0 | 0.0 | 0.00 | 0.14 | 0.00 | 96 | 1014.9 |
| 20260508061529 | 56 | 123 | 0.0 | 0.0 | 0.00 | 0.14 | 0.00 | 96 | 1015.0 |
| 20260508060025 | 56 | 123 | 0.0 | 0.0 | 0.00 | 0.14 | 0.00 | 95 | 1015.0 |
| 20260508054537 | 56 | 123 | 0.0 | 0.0 | 0.00 | 0.15 | 0.00 | 96 | 1015.3 |
| 20260508053021 | 57 | 123 | 0.0 | 0.0 | 0.00 | 0.15 | 0.00 | 95 | 1015.5 |
| 20260508051520 | 57 | 123 | 0.0 | 0.0 | 0.00 | 0.15 | 0.00 | 95 | 1015.5 |
| 20260508050018 | 57 | 123 | 0.0 | 0.0 | 0.00 | 0.15 | 0.00 | 95 | 1015.7 |